Time,TemperatureF,DewpointF,PressureIn,WindDirection,WindDirectionDegrees,WindSpeedMPH,WindSpeedGustMPH,Humidity,HourlyPrecipIn,Conditions,Clouds,dailyrainin,SoftwareType,DateUTC
2013-02-20 00:01:00,31.0,30.0,29.95,WNW,286,2.0,-999.0,95,-99.99,,,-99.99,,2013-02-20 08:01:00,
2013-02-20 00:11:00,31.0,30.0,29.95,WNW,286,2.0,-999.0,95,-99.99,,,-99.99,,2013-02-20 08:11:00,
2013-02-20 00:21:00,31.0,30.0,29.95,WNW,286,2.0,-999.0,95,-99.99,,,-99.99,,2013-02-20 08:21:00,
2013-02-20 00:31:00,31.0,30.0,29.96,WNW,286,1.0,-999.0,95,-99.99,,,-99.99,,2013-02-20 08:31:00,
2013-02-20 00:41:00,31.0,30.0,29.96,WNW,286,1.0,-999.0,95,-99.99,,,-99.99,,2013-02-20 08:41:00,
2013-02-20 00:51:00,31.0,30.0,29.96,West,280,1.0,-999.0,95,-99.99,,,-99.99,,2013-02-20 08:51:00,
2013-02-20 01:01:00,31.0,30.0,29.96,West,279,2.0,-999.0,95,-99.99,,,-99.99,,2013-02-20 09:01:00,
2013-02-20 01:11:00,31.0,30.0,29.96,West,279,2.0,-999.0,95,-99.99,,,-99.99,,2013-02-20 09:11:00,
2013-02-20 01:21:00,31.0,30.0,29.97,WNW,295,2.0,-999.0,95,-99.99,,,-99.99,,2013-02-20 09:21:00,
2013-02-20 01:31:00,31.0,30.0,29.97,WNW,295,2.0,-999.0,95,-99.99,,,-99.99,,2013-02-20 09:31:00,
2013-02-20 01:41:00,31.0,30.0,29.97,WNW,295,2.0,-999.0,95,-99.99,,,-99.99,,2013-02-20 09:41:00,
2013-02-20 01:51:00,31.0,30.0,29.97,WNW,295,2.0,-999.0,95,-99.99,,,-99.99,,2013-02-20 09:51:00,
2013-02-20 02:01:00,31.0,30.0,29.98,WNW,292,2.0,-999.0,95,-99.99,,,-99.99,,2013-02-20 10:01:00,
2013-02-20 02:12:00,31.0,30.0,29.98,WNW,292,2.0,-999.0,95,-99.99,,,-99.99,,2013-02-20 10:12:00,
2013-02-20 02:21:00,31.0,30.0,29.97,WNW,291,4.0,-999.0,95,-99.99,,,-99.99,,2013-02-20 10:21:00,
2013-02-20 02:31:00,31.0,30.0,29.97,WNW,299,5.0,-999.0,95,-99.99,,,-99.99,,2013-02-20 10:31:00,
2013-02-20 02:41:00,31.0,30.0,29.97,WNW,299,5.0,-999.0,95,-99.99,,,-99.99,,2013-02-20 10:41:00,
2013-02-20 02:51:00,31.0,30.0,29.97,WNW,299,5.0,-999.0,95,-99.99,,,-99.99,,2013-02-20 10:51:00,
2013-02-20 03:02:00,30.0,29.0,29.97,WNW,299,3.0,-999.0,95,-99.99,,,-99.99,,2013-02-20 11:02:00,
2013-02-20 03:11:00,30.0,29.0,29.98,WNW,299,2.0,-999.0,95,-99.99,,,-99.99,,2013-02-20 11:11:00,
2013-02-20 03:21:00,30.0,29.0,29.98,WNW,299,2.0,-999.0,95,-99.99,,,-99.99,,2013-02-20 11:21:00,
2013-02-20 03:31:00,30.0,29.0,29.98,WNW,299,1.0,-999.0,95,-99.99,,,-99.99,,2013-02-20 11:31:00,
2013-02-20 03:41:00,30.0,29.0,29.98,WNW,299,1.0,-999.0,95,-99.99,,,-99.99,,2013-02-20 11:41:00,
2013-02-20 03:52:00,30.0,29.0,29.98,WNW,295,3.0,-999.0,95,-99.99,,,-99.99,,2013-02-20 11:52:00,
2013-02-20 04:01:00,30.0,29.0,29.99,WNW,289,2.0,-999.0,95,-99.99,,,-99.99,,2013-02-20 12:01:00,
2013-02-20 04:11:00,30.0,29.0,29.99,WNW,289,2.0,-999.0,95,-99.99,,,-99.99,,2013-02-20 12:11:00,
2013-02-20 04:21:00,30.0,29.0,29.99,WNW,290,1.0,-999.0,95,-99.99,,,-99.99,,2013-02-20 12:21:00,
2013-02-20 04:31:00,30.0,29.0,29.99,WNW,290,0.0,-999.0,95,-99.99,,,-99.99,,2013-02-20 12:31:00,
2013-02-20 04:42:00,30.0,29.0,29.99,WNW,290,0.0,-999.0,95,-99.99,,,-99.99,,2013-02-20 12:42:00,
2013-02-20 04:52:00,30.0,28.0,29.99,West,274,2.0,-999.0,94,-99.99,,,-99.99,,2013-02-20 12:52:00,
2013-02-20 05:01:00,30.0,28.0,30.00,WNW,284,2.0,-999.0,94,-99.99,,,-99.99,,2013-02-20 13:01:00,
2013-02-20 05:11:00,30.0,28.0,30.00,WNW,284,2.0,-999.0,94,-99.99,,,-99.99,,2013-02-20 13:11:00,
2013-02-20 05:22:00,30.0,29.0,30.00,WNW,284,1.0,-999.0,95,-99.99,,,-99.99,,2013-02-20 13:22:00,
2013-02-20 05:31:00,30.0,28.0,30.00,WNW,284,0.0,-999.0,94,-99.99,,,-99.99,,2013-02-20 13:31:00,
2013-02-20 05:42:00,30.0,28.0,30.00,WNW,284,0.0,-999.0,94,-99.99,,,-99.99,,2013-02-20 13:42:00,
2013-02-20 05:51:00,30.0,29.0,30.00,WNW,284,0.0,-999.0,95,-99.99,,,-99.99,,2013-02-20 13:51:00,
2013-02-20 06:01:00,30.0,29.0,30.01,NW,304,3.0,-999.0,95,-99.99,,,-99.99,,2013-02-20 14:01:00,
2013-02-20 06:11:00,30.0,29.0,30.01,NW,304,3.0,-999.0,95,-99.99,,,-99.99,,2013-02-20 14:11:00,
2013-02-20 06:21:00,30.0,29.0,30.01,NW,304,3.0,-999.0,95,-99.99,,,-99.99,,2013-02-20 14:21:00,
2013-02-20 06:32:00,29.0,28.0,30.01,NW,315,4.0,-999.0,95,-99.99,,,-99.99,,2013-02-20 14:32:00,
2013-02-20 06:42:00,29.0,28.0,30.01,NW,315,4.0,-999.0,95,-99.99,,,-99.99,,2013-02-20 14:42:00,
2013-02-20 06:52:00,29.0,28.0,30.01,WNW,294,5.0,-999.0,95,-99.99,,,-99.99,,2013-02-20 14:52:00,
2013-02-20 07:01:00,29.0,28.0,30.01,NW,316,6.0,-999.0,95,-99.99,,,-99.99,,2013-02-20 15:01:00,
2013-02-20 07:11:00,29.0,28.0,30.01,NW,316,6.0,-999.0,95,-99.99,,,-99.99,,2013-02-20 15:11:00,
2013-02-20 07:22:00,29.0,28.0,30.02,NW,306,2.0,-999.0,95,-99.99,,,-99.99,,2013-02-20 15:22:00,
2013-02-20 07:31:00,28.0,27.0,30.03,SSE,155,1.0,-999.0,94,-99.99,,,-99.99,,2013-02-20 15:31:00,
2013-02-20 07:41:00,28.0,27.0,30.03,SSE,155,1.0,-999.0,94,-99.99,,,-99.99,,2013-02-20 15:41:00,
2013-02-20 07:51:00,28.0,27.0,30.03,SSE,155,0.0,-999.0,94,-99.99,,,-99.99,,2013-02-20 15:51:00,
2013-02-20 08:01:00,28.0,27.0,30.03,SSE,155,0.0,-999.0,95,-99.99,,,-99.99,,2013-02-20 16:01:00,
2013-02-20 08:11:00,28.0,27.0,30.03,SSE,155,0.0,-999.0,95,-99.99,,,-99.99,,2013-02-20 16:11:00,
2013-02-20 08:21:00,30.0,29.0,30.03,SSE,155,0.0,-999.0,95,-99.99,,,-99.99,,2013-02-20 16:21:00,
2013-02-20 08:32:00,29.0,27.0,30.04,SSE,155,0.0,-999.0,93,-99.99,,,-99.99,,2013-02-20 16:32:00,
2013-02-20 08:41:00,29.0,27.0,30.04,SSE,155,0.0,-999.0,93,-99.99,,,-99.99,,2013-02-20 16:41:00,
2013-02-20 08:51:00,30.0,28.0,30.05,SSE,155,0.0,-999.0,94,-99.99,,,-99.99,,2013-02-20 16:51:00,
2013-02-20 09:01:00,30.0,28.0,30.04,WNW,286,1.0,-999.0,93,-99.99,,,-99.99,,2013-02-20 17:01:00,
2013-02-20 09:11:00,31.0,29.0,30.05,West,279,1.0,-999.0,91,-99.99,,,-99.99,,2013-02-20 17:11:00,
2013-02-20 09:21:00,31.0,29.0,30.05,West,279,1.0,-999.0,91,-99.99,,,-99.99,,2013-02-20 17:21:00,
2013-02-20 09:32:00,31.0,28.0,30.05,West,279,0.0,-999.0,89,-99.99,,,-99.99,,2013-02-20 17:32:00,
2013-02-20 09:41:00,31.0,28.0,30.05,West,279,0.0,-999.0,89,-99.99,,,-99.99,,2013-02-20 17:41:00,
2013-02-20 09:52:00,32.0,29.0,30.05,West,279,0.0,-999.0,87,-99.99,,,-99.99,,2013-02-20 17:52:00,
2013-02-20 10:02:00,33.0,29.0,30.05,WSW,245,1.0,-999.0,84,-99.99,,,-99.99,,2013-02-20 18:02:00,
2013-02-20 10:11:00,33.0,29.0,30.05,WSW,245,1.0,-999.0,84,-99.99,,,-99.99,,2013-02-20 18:11:00,
2013-02-20 10:21:00,34.0,29.0,30.05,SSE,160,2.0,-999.0,83,-99.99,,,-99.99,,2013-02-20 18:21:00,
2013-02-20 10:31:00,33.0,28.0,30.05,West,259,0.0,-999.0,80,-99.99,,,-99.99,,2013-02-20 18:31:00,
2013-02-20 10:41:00,33.0,28.0,30.05,West,259,0.0,-999.0,80,-99.99,,,-99.99,,2013-02-20 18:41:00,
2013-02-20 10:51:00,33.0,28.0,30.04,SSW,200,1.0,-999.0,82,-99.99,,,-99.99,,2013-02-20 18:51:00,
2013-02-20 11:01:00,33.0,28.0,30.04,SSW,213,3.0,-999.0,80,-99.99,,,-99.99,,2013-02-20 19:01:00,
2013-02-20 11:11:00,33.0,28.0,30.04,SSW,213,3.0,-999.0,80,-99.99,,,-99.99,,2013-02-20 19:11:00,
2013-02-20 11:21:00,34.0,28.0,30.04,West,276,3.0,-999.0,79,-99.99,,,-99.99,,2013-02-20 19:21:00,
2013-02-20 11:31:00,34.0,28.0,30.04,SW,216,2.0,-999.0,79,-99.99,,,-99.99,,2013-02-20 19:31:00,
2013-02-20 11:41:00,34.0,28.0,30.04,SW,216,2.0,-999.0,79,-99.99,,,-99.99,,2013-02-20 19:41:00,
2013-02-20 11:51:00,34.0,28.0,30.04,West,273,1.0,-999.0,79,-99.99,,,-99.99,,2013-02-20 19:51:00,
2013-02-20 12:01:00,34.0,28.0,30.03,West,264,2.0,-999.0,80,-99.99,,,-99.99,,2013-02-20 20:01:00,
2013-02-20 12:11:00,34.0,28.0,30.03,West,264,2.0,-999.0,80,-99.99,,,-99.99,,2013-02-20 20:11:00,
2013-02-20 12:21:00,34.0,28.0,30.03,West,264,2.0,-999.0,80,-99.99,,,-99.99,,2013-02-20 20:21:00,
2013-02-20 12:31:00,34.0,28.0,30.03,SSW,202,1.0,-999.0,80,-99.99,,,-99.99,,2013-02-20 20:31:00,
2013-02-20 12:41:00,33.0,28.0,30.03,West,276,2.0,-999.0,83,-99.99,,,-99.99,,2013-02-20 20:41:00,
2013-02-20 12:51:00,33.0,28.0,30.03,West,276,2.0,-999.0,83,-99.99,,,-99.99,,2013-02-20 20:51:00,
2013-02-20 13:01:00,32.0,27.0,30.04,WNW,284,6.0,-999.0,83,-99.99,,,-99.99,,2013-02-20 21:01:00,
2013-02-20 13:11:00,32.0,27.0,30.04,WNW,284,6.0,-999.0,83,-99.99,,,-99.99,,2013-02-20 21:11:00,
2013-02-20 13:21:00,32.0,27.0,30.04,WNW,284,6.0,-999.0,83,-99.99,,,-99.99,,2013-02-20 21:21:00,
2013-02-20 13:31:00,33.0,28.0,30.03,WNW,290,2.0,-999.0,80,-99.99,,,-99.99,,2013-02-20 21:31:00,
2013-02-20 13:42:00,33.0,28.0,30.03,WNW,290,2.0,-999.0,80,-99.99,,,-99.99,,2013-02-20 21:42:00,
2013-02-20 13:52:00,34.0,28.0,30.03,WNW,298,2.0,-999.0,78,-99.99,,,-99.99,,2013-02-20 21:52:00,
2013-02-20 14:01:00,34.0,28.0,30.03,NW,317,5.0,-999.0,77,-99.99,,,-99.99,,2013-02-20 22:01:00,
2013-02-20 14:11:00,34.0,28.0,30.03,NW,317,5.0,-999.0,77,-99.99,,,-99.99,,2013-02-20 22:11:00,
2013-02-20 14:21:00,35.0,28.0,30.03,North,350,2.0,-999.0,76,-99.99,,,-99.99,,2013-02-20 22:21:00,
2013-02-20 14:31:00,34.0,27.0,30.03,West,281,4.0,-999.0,75,-99.99,,,-99.99,,2013-02-20 22:31:00,
2013-02-20 14:41:00,34.0,27.0,30.03,West,281,4.0,-999.0,75,-99.99,,,-99.99,,2013-02-20 22:41:00,
2013-02-20 14:51:00,34.0,28.0,30.03,West,275,2.0,-999.0,77,-99.99,,,-99.99,,2013-02-20 22:51:00,
2013-02-20 15:01:00,34.0,27.0,30.02,WNW,282,1.0,-999.0,75,-99.99,,,-99.99,,2013-02-20 23:01:00,
2013-02-20 15:12:00,34.0,27.0,30.02,WNW,282,1.0,-999.0,75,-99.99,,,-99.99,,2013-02-20 23:12:00,
2013-02-20 15:21:00,34.0,27.0,30.02,WNW,282,1.0,-999.0,76,-99.99,,,-99.99,,2013-02-20 23:21:00,
2013-02-20 15:31:00,34.0,27.0,30.02,West,277,2.0,-999.0,74,-99.99,,,-99.99,,2013-02-20 23:31:00,
2013-02-20 15:42:00,34.0,27.0,30.02,West,277,2.0,-999.0,74,-99.99,,,-99.99,,2013-02-20 23:42:00,
2013-02-20 15:52:00,35.0,25.0,30.02,NW,316,2.0,-999.0,67,-99.99,,,-99.99,,2013-02-20 23:52:00,
2013-02-20 16:02:00,34.0,24.0,30.03,West,279,4.0,-999.0,66,-99.99,,,-99.99,,2013-02-21 00:02:00,
2013-02-20 16:11:00,34.0,24.0,30.03,West,279,4.0,-999.0,66,-99.99,,,-99.99,,2013-02-21 00:11:00,
2013-02-20 16:21:00,34.0,25.0,30.03,WNW,284,2.0,-999.0,68,-99.99,,,-99.99,,2013-02-21 00:21:00,
2013-02-20 16:31:00,36.0,25.0,30.03,West,273,1.0,-999.0,65,-99.99,,,-99.99,,2013-02-21 00:31:00,
2013-02-20 16:41:00,36.0,25.0,30.03,West,273,1.0,-999.0,65,-99.99,,,-99.99,,2013-02-21 00:41:00,
2013-02-20 16:52:00,36.0,26.0,30.03,West,266,1.0,-999.0,66,-99.99,,,-99.99,,2013-02-21 00:52:00,
2013-02-20 17:01:00,35.0,25.0,30.03,NW,319,1.0,-999.0,67,-99.99,,,-99.99,,2013-02-21 01:01:00,
2013-02-20 17:11:00,35.0,25.0,30.03,NW,319,1.0,-999.0,67,-99.99,,,-99.99,,2013-02-21 01:11:00,
2013-02-20 17:21:00,34.0,25.0,30.03,NW,322,2.0,-999.0,68,-99.99,,,-99.99,,2013-02-21 01:21:00,
2013-02-20 17:32:00,34.0,25.0,30.03,NW,322,1.0,-999.0,68,-99.99,,,-99.99,,2013-02-21 01:32:00,
2013-02-20 17:41:00,34.0,25.0,30.03,NW,322,1.0,-999.0,68,-99.99,,,-99.99,,2013-02-21 01:41:00,
2013-02-20 17:51:00,33.0,24.0,30.03,NW,322,0.0,-999.0,70,-99.99,,,-99.99,,2013-02-21 01:51:00,
2013-02-20 18:01:00,32.0,24.0,30.04,NW,322,0.0,-999.0,73,-99.99,,,-99.99,,2013-02-21 02:01:00,
2013-02-20 18:11:00,32.0,24.0,30.04,NW,322,0.0,-999.0,73,-99.99,,,-99.99,,2013-02-21 02:11:00,
2013-02-20 18:21:00,31.0,24.0,30.04,NW,322,0.0,-999.0,76,-99.99,,,-99.99,,2013-02-21 02:21:00,
2013-02-20 18:32:00,31.0,26.0,30.05,NW,322,0.0,-999.0,81,-99.99,,,-99.99,,2013-02-21 02:32:00,
2013-02-20 18:42:00,31.0,26.0,30.05,NW,322,0.0,-999.0,81,-99.99,,,-99.99,,2013-02-21 02:42:00,
2013-02-20 18:51:00,31.0,26.0,30.05,NW,322,0.0,-999.0,81,-99.99,,,-99.99,,2013-02-21 02:51:00,
2013-02-20 19:01:00,29.0,25.0,30.06,NW,322,0.0,-999.0,83,-99.99,,,-99.99,,2013-02-21 03:01:00,
2013-02-20 19:11:00,29.0,25.0,30.06,NW,322,0.0,-999.0,83,-99.99,,,-99.99,,2013-02-21 03:11:00,
2013-02-20 19:21:00,27.0,23.0,30.06,NW,322,0.0,-999.0,85,-99.99,,,-99.99,,2013-02-21 03:21:00,
2013-02-20 19:31:00,27.0,23.0,30.07,NW,322,0.0,-999.0,86,-99.99,,,-99.99,,2013-02-21 03:31:00,
2013-02-20 19:41:00,27.0,23.0,30.07,NW,322,0.0,-999.0,86,-99.99,,,-99.99,,2013-02-21 03:41:00,
2013-02-20 19:51:00,26.0,23.0,30.07,NW,322,0.0,-999.0,87,-99.99,,,-99.99,,2013-02-21 03:51:00,
2013-02-20 20:01:00,26.0,23.0,30.07,NW,322,0.0,-999.0,89,-99.99,,,-99.99,,2013-02-21 04:01:00,
2013-02-20 20:11:00,26.0,23.0,30.07,NW,322,0.0,-999.0,89,-99.99,,,-99.99,,2013-02-21 04:11:00,
2013-02-20 20:21:00,27.0,25.0,30.08,NW,322,0.0,-999.0,91,-99.99,,,-99.99,,2013-02-21 04:21:00,
2013-02-20 20:31:00,25.0,22.0,30.08,NW,322,0.0,-999.0,89,-99.99,,,-99.99,,2013-02-21 04:31:00,
2013-02-20 20:41:00,25.0,22.0,30.08,NW,322,0.0,-999.0,89,-99.99,,,-99.99,,2013-02-21 04:41:00,
2013-02-20 20:51:00,25.0,22.0,30.09,NW,322,0.0,-999.0,90,-99.99,,,-99.99,,2013-02-21 04:51:00,
2013-02-20 21:02:00,24.0,22.0,30.09,NW,322,0.0,-999.0,91,-99.99,,,-99.99,,2013-02-21 05:02:00,
2013-02-20 21:12:00,24.0,22.0,30.09,NW,322,0.0,-999.0,91,-99.99,,,-99.99,,2013-02-21 05:12:00,
2013-02-20 21:21:00,24.0,22.0,30.09,NW,322,0.0,-999.0,91,-99.99,,,-99.99,,2013-02-21 05:21:00,
2013-02-20 21:33:00,24.0,22.0,30.09,NW,322,0.0,-999.0,92,-99.99,,,-99.99,,2013-02-21 05:33:00,
2013-02-20 21:46:00,24.0,22.0,30.09,NW,322,0.0,-999.0,92,-99.99,,,-99.99,,2013-02-21 05:46:00,
2013-02-20 21:58:00,23.0,21.0,30.10,NW,322,0.0,-999.0,92,-99.99,,,-99.99,,2013-02-21 05:58:00,
2013-02-20 22:11:00,23.0,21.0,30.10,NW,322,0.0,-999.0,93,-99.99,,,-99.99,,2013-02-21 06:11:00,
2013-02-20 22:21:00,23.0,21.0,30.09,NW,322,0.0,-999.0,93,-99.99,,,-99.99,,2013-02-21 06:21:00,
2013-02-20 22:31:00,23.0,21.0,30.09,NW,322,0.0,-999.0,93,-99.99,,,-99.99,,2013-02-21 06:31:00,
2013-02-20 22:41:00,23.0,21.0,30.09,NW,322,0.0,-999.0,93,-99.99,,,-99.99,,2013-02-21 06:41:00,
2013-02-20 22:51:00,22.0,20.0,30.10,NW,322,0.0,-999.0,93,-99.99,,,-99.99,,2013-02-21 06:51:00,
2013-02-20 23:01:00,22.0,20.0,30.10,NW,322,0.0,-999.0,93,-99.99,,,-99.99,,2013-02-21 07:01:00,
2013-02-20 23:11:00,22.0,21.0,30.10,NW,322,0.0,-999.0,94,-99.99,,,-99.99,,2013-02-21 07:11:00,
2013-02-20 23:21:00,22.0,21.0,30.10,NW,322,0.0,-999.0,94,-99.99,,,-99.99,,2013-02-21 07:21:00,
2013-02-20 23:31:00,22.0,21.0,30.10,NW,322,0.0,-999.0,94,-99.99,,,-99.99,,2013-02-21 07:31:00,
2013-02-20 23:41:00,21.0,19.0,30.10,NW,322,0.0,-999.0,93,-99.99,,,-99.99,,2013-02-21 07:41:00,
2013-02-20 23:52:00,21.0,19.0,30.10,NW,322,0.0,-999.0,93,-99.99,,,-99.99,,2013-02-21 07:52:00,